KAL1009 RKSS-RKPC

Flight info

Callsign KAL1009
Flight time 0h 45m
Altitude 24000
Route BULTI2U BULTI Y711 DOTOL DOTOL2P
Aircraft A21N/M-DE2FGHIJ1J3J4J7M3P2RWXYZ/LB2D1G1

Departure

Time 2025-09-05 02:39
Airport Gimpo International Airport (RKSS)

Arrival

Time 2025-09-05 03:24
Airport Jeju International Airport (RKPC)
Time Latitude Longitude Altitude Speed Heading
2025-09-05 02:31 37.55520 126.80367 67 ft 0 kts 335°
2025-09-05 02:32 37.55478 126.80132 68 ft 18 kts 291°
2025-09-05 02:32 37.55574 126.80007 71 ft 21 kts 315°
2025-09-05 02:33 37.55810 126.79708 68 ft 22 kts 315°
2025-09-05 02:34 37.56176 126.79247 70 ft 25 kts 315°
2025-09-05 02:34 37.56442 126.78912 68 ft 21 kts 316°
2025-09-05 02:35 37.56678 126.78617 70 ft 27 kts 315°
2025-09-05 02:35 37.56909 126.78325 66 ft 24 kts 314°
2025-09-05 02:35 37.57035 126.78165 67 ft 27 kts 315°
2025-09-05 02:36 37.57065 126.78127 67 ft 0 kts 315°
2025-09-05 02:37 37.57151 126.77955 69 ft 15 kts 242°
2025-09-05 02:37 37.56999 126.77915 61 ft 0 kts 133°
2025-09-05 02:38 37.56732 126.78252 66 ft 92 kts 135°
2025-09-05 02:38 37.56099 126.79050 65 ft 163 kts 135°
2025-09-05 02:39 37.53240 126.82547 2266 ft 217 kts 135°
2025-09-05 02:39 37.50784 126.85661 3927 ft 261 kts 136°
2025-09-05 02:39 37.49495 126.87271 4842 ft 266 kts 139°
2025-09-05 02:40 37.46007 126.88568 5882 ft 271 kts 175°
2025-09-05 02:41 37.40513 126.90447 5983 ft 272 kts 163°
2025-09-05 02:41 37.36920 126.91992 5968 ft 274 kts 153°
2025-09-05 02:42 37.33727 126.94662 7241 ft 280 kts 146°
2025-09-05 02:42 37.30476 126.97488 7982 ft 287 kts 147°
2025-09-05 02:42 37.28828 126.98911 8001 ft 287 kts 147°
2025-09-05 02:43 37.23807 127.02908 7955 ft 286 kts 162°
2025-09-05 02:43 37.21843 127.03171 8157 ft 282 kts 192°
2025-09-05 02:44 37.16134 127.00862 10272 ft 296 kts 199°
2025-09-05 02:45 37.11953 126.99190 10898 ft 335 kts 199°
2025-09-05 02:45 37.07255 126.97380 11345 ft 371 kts 198°
2025-09-05 02:46 37.02102 126.95413 11859 ft 399 kts 198°
2025-09-05 02:46 36.96737 126.93371 12951 ft 406 kts 198°
2025-09-05 02:46 36.94030 126.92339 13513 ft 408 kts 198°
2025-09-05 02:47 36.88659 126.89964 14403 ft 413 kts 201°
2025-09-05 02:47 36.83221 126.87478 15228 ft 418 kts 201°
2025-09-05 02:48 36.77725 126.84973 15892 ft 422 kts 201°
2025-09-05 02:49 36.69181 126.82538 16101 ft 428 kts 180°
2025-09-05 02:49 36.63236 126.82809 16876 ft 432 kts 179°
2025-09-05 02:50 36.57163 126.83071 17690 ft 436 kts 179°
2025-09-05 02:50 36.51110 126.83303 18371 ft 441 kts 180°
2025-09-05 02:50 36.48034 126.83419 18682 ft 443 kts 180°
2025-09-05 02:51 36.41834 126.83651 19293 ft 448 kts 179°
2025-09-05 02:51 36.35583 126.83469 19882 ft 452 kts 186°
2025-09-05 02:52 36.29285 126.82773 20474 ft 456 kts 186°
2025-09-05 02:53 36.19714 126.81724 21350 ft 464 kts 186°
2025-09-05 02:53 36.13241 126.81022 21945 ft 469 kts 186°
2025-09-05 02:53 36.10011 126.80672 22249 ft 472 kts 186°
2025-09-05 02:54 36.03425 126.79956 22875 ft 478 kts 186°
2025-09-05 02:54 35.96751 126.79232 23544 ft 484 kts 186°
2025-09-05 02:55 35.86606 126.78134 23958 ft 489 kts 186°
2025-09-05 02:56 35.79870 126.77406 23937 ft 489 kts 186°
2025-09-05 02:56 35.76478 126.77039 23929 ft 489 kts 186°
2025-09-05 02:57 35.66271 126.75937 23930 ft 489 kts 186°
2025-09-05 02:57 35.59532 126.75211 23930 ft 490 kts 186°
2025-09-05 02:57 35.56134 126.74846 23930 ft 489 kts 186°
2025-09-05 02:58 35.49353 126.74118 23927 ft 489 kts 186°
2025-09-05 02:58 35.42579 126.73392 23929 ft 488 kts 186°
2025-09-05 02:59 35.35801 126.72667 23927 ft 488 kts 186°
2025-09-05 02:59 35.29031 126.71944 23919 ft 488 kts 186°
2025-09-05 03:00 35.22262 126.71222 23921 ft 487 kts 186°
2025-09-05 03:00 35.15509 126.70504 23927 ft 487 kts 186°
2025-09-05 03:01 35.08751 126.69785 23930 ft 486 kts 186°
2025-09-05 03:01 35.02026 126.69072 23924 ft 485 kts 186°
2025-09-05 03:02 34.95290 126.68358 23923 ft 485 kts 186°
2025-09-05 03:03 34.85249 126.67295 23920 ft 485 kts 186°
2025-09-05 03:03 34.81887 126.66940 23923 ft 485 kts 186°
2025-09-05 03:04 34.71792 126.65876 23916 ft 485 kts 186°
2025-09-05 03:04 34.68432 126.65520 23917 ft 485 kts 186°
2025-09-05 03:05 34.58330 126.64461 23915 ft 485 kts 186°
2025-09-05 03:05 34.51650 126.63760 23922 ft 484 kts 186°
2025-09-05 03:06 34.45055 126.63070 21989 ft 473 kts 186°
2025-09-05 03:06 34.38520 126.62388 19433 ft 467 kts 186°
2025-09-05 03:07 34.32147 126.61723 17240 ft 451 kts 186°
2025-09-05 03:07 34.29045 126.61400 16131 ft 443 kts 186°
2025-09-05 03:07 34.23009 126.60771 14078 ft 428 kts 186°
2025-09-05 03:08 34.17288 126.60176 13010 ft 400 kts 186°
2025-09-05 03:09 34.09412 126.59359 12337 ft 359 kts 186°
2025-09-05 03:09 34.04609 126.58860 12041 ft 334 kts 186°
2025-09-05 03:10 34.00111 126.58238 11370 ft 324 kts 197°
2025-09-05 03:10 33.98099 126.57013 10712 ft 328 kts 217°
2025-09-05 03:11 33.92830 126.51793 9494 ft 324 kts 219°
2025-09-05 03:11 33.91085 126.50082 9076 ft 322 kts 219°
2025-09-05 03:11 33.87622 126.46710 8393 ft 319 kts 219°
2025-09-05 03:12 33.82503 126.41743 7545 ft 314 kts 219°
2025-09-05 03:13 33.79055 126.38541 6985 ft 312 kts 211°
2025-09-05 03:13 33.75144 126.36486 6554 ft 298 kts 201°
2025-09-05 03:14 33.71437 126.34715 6307 ft 275 kts 201°
2025-09-05 03:14 33.68005 126.33045 5951 ft 260 kts 202°
2025-09-05 03:14 33.66332 126.32225 5610 ft 260 kts 202°
2025-09-05 03:15 33.63545 126.30858 5080 ft 260 kts 202°
2025-09-05 03:15 33.60203 126.29216 4634 ft 259 kts 201°
2025-09-05 03:16 33.56346 126.27321 4153 ft 257 kts 201°
2025-09-05 03:17 33.51537 126.24932 3945 ft 230 kts 202°
2025-09-05 03:17 33.49190 126.23763 3982 ft 209 kts 201°
2025-09-05 03:17 33.47840 126.23100 4021 ft 209 kts 200°
2025-09-05 03:18 33.45152 126.23446 3867 ft 201 kts 138°
2025-09-05 03:18 33.43749 126.26326 3172 ft 201 kts 117°
2025-09-05 03:19 33.42456 126.29298 2866 ft 202 kts 117°
2025-09-05 03:19 33.42448 126.32418 2804 ft 192 kts 64°
2025-09-05 03:20 33.43853 126.35000 2366 ft 173 kts 56°
2025-09-05 03:20 33.45088 126.37301 1902 ft 159 kts 59°
2025-09-05 03:21 33.46221 126.39511 1522 ft 147 kts 58°
2025-09-05 03:21 33.47244 126.41504 1167 ft 138 kts 57°
2025-09-05 03:22 33.48246 126.43456 794 ft 138 kts 54°
2025-09-05 03:23 33.49740 126.46369 242 ft 136 kts 56°
2025-09-05 03:23 33.50645 126.48117 98 ft 74 kts 58°
2025-09-05 03:24 33.50884 126.48703 96 ft 27 kts 82°
2025-09-05 03:24 33.50887 126.48853 94 ft 19 kts 90°
2025-09-05 03:25 33.51044 126.49271 96 ft 9 kts 60°
2025-09-05 03:25 33.50947 126.49398 97 ft 11 kts 181°
2025-09-05 03:26 33.50886 126.49314 99 ft 0 kts 238°
2025-09-05 03:26 33.50872 126.49287 97 ft 5 kts 238°
2025-09-05 03:27 33.50805 126.49157 96 ft 3 kts 238°
2025-09-05 03:27 33.50778 126.49141 96 ft 7 kts 168°
2025-09-05 03:27 33.50724 126.49176 97 ft 1 kts 154°
2025-09-05 03:28 33.50706 126.49184 96 ft 0 kts 160°